Simultaneous Nadir Overpasses (SNOs) Predictions

Prediction of SNOs between NOAA-21 and METOP-C Satellite Orbit:

Table of predicted SNOs for the next 14.0 days since TLE Epoch: 6/3/2023
Index Date (NOAA-21) Time (NOAA-21) Lat,Lon (NOAA-21) SZA (NOAA-21 ) Date (METOP-C) Time (METOP-C) Lat,Lon (METOP-C) SZA (METOP-C ) Distance(km) Time Diff (sec)
1 06/08/2023 09:55:17 73.30, 21.59 50.63 06/08/2023 09:56:25 73.27, 23.78 50.48 70.12 68
2 06/08/2023 10:46:00 -73.25,-170.99 129.43 06/08/2023 10:47:09 -73.18,-169.10 129.61 61.37 69
3 06/08/2023 11:36:41 73.01, -3.14 50.30 06/08/2023 11:37:53 72.94, -2.27 50.17 29.21 72
4 06/08/2023 12:27:24 -72.96, 164.28 129.76 06/08/2023 12:28:36 -72.90, 164.97 129.87 23.52 72
5 06/08/2023 13:18:06 72.76, -27.99 50.02 06/08/2023 13:19:18 72.76, -27.98 50.01 0.19 72
6 06/08/2023 14:08:50 -72.76, 139.32 129.98 06/08/2023 14:10:00 -72.77, 139.37 129.99 2.00 70
7 06/08/2023 14:59:36 72.76, -53.38 50.02 06/08/2023 15:00:40 72.73, -53.38 49.98 3.42 64
8 06/08/2023 15:50:20 -72.77, 113.93 129.98 06/08/2023 15:51:22 -72.75, 113.98 130.02 2.67 62
9 06/08/2023 16:41:06 72.77, -78.76 50.02 06/08/2023 16:42:01 72.76, -78.66 50.00 3.42 55
10 06/08/2023 17:31:49 -72.72, 88.65 130.04 06/08/2023 17:32:44 -72.72, 88.59 130.04 2.24 55
11 06/08/2023 18:22:35 72.72,-104.04 49.97 06/08/2023 18:23:23 72.73,-104.06 49.97 1.07 48
12 06/08/2023 19:13:19 -72.73, 63.27 130.04 06/08/2023 19:14:05 -72.75, 63.30 130.03 2.40 46
13 06/08/2023 20:04:05 72.73,-129.43 49.97 06/08/2023 20:04:45 72.71,-129.45 49.94 2.62 40
14 06/08/2023 20:54:49 -72.73, 37.88 130.04 06/08/2023 20:55:27 -72.72, 37.91 130.06 1.47 38
15 06/08/2023 21:45:35 72.74,-154.81 49.97 06/08/2023 21:46:06 72.73,-154.74 49.95 2.54 31
16 06/08/2023 22:36:18 -72.69, 12.60 130.09 06/08/2023 22:36:49 -72.70, 12.51 130.08 3.02 31
17 06/08/2023 23:27:04 72.69, 179.91 49.91 06/08/2023 23:27:28 72.71, 179.87 49.93 2.19 24
18 06/09/2023 00:17:48 -72.69, -12.78 130.09 06/09/2023 00:18:10 -72.72, -12.77 130.07 3.22 22
19 06/09/2023 01:08:34 72.70, 154.52 49.91 06/09/2023 01:08:50 72.68, 154.48 49.90 2.14 16
20 06/09/2023 01:59:18 -72.70, -38.17 130.09 06/09/2023 01:59:32 -72.70, -38.16 130.10 0.28 14
21 06/09/2023 02:50:04 72.70, 129.13 49.91 06/09/2023 02:50:11 72.71, 129.19 49.91 1.93 7
22 06/09/2023 03:40:48 -72.70, -63.56 130.09 06/09/2023 03:40:54 -72.67, -63.56 130.12 3.64 6
23 06/09/2023 04:31:33 72.66, 103.85 49.86 06/09/2023 04:31:33 72.68, 103.80 49.88 3.29 0
24 06/09/2023 05:22:18 -72.71, -88.94 130.09 06/09/2023 05:22:15 -72.70, -88.84 130.11 3.51 3
25 06/09/2023 06:13:03 72.66, 78.47 49.86 06/09/2023 06:12:55 72.65, 78.41 49.86 2.17 8
26 06/09/2023 07:03:47 -72.66,-114.22 130.15 06/09/2023 07:03:37 -72.67,-114.24 130.14 0.90 10
27 06/09/2023 07:54:33 72.67, 53.08 49.86 06/09/2023 07:54:16 72.68, 53.12 49.87 1.87 17
28 06/09/2023 08:45:17 -72.67,-139.61 130.15 06/09/2023 08:44:59 -72.65,-139.63 130.16 2.71 18
29 06/09/2023 09:36:03 72.67, 27.70 49.86 06/09/2023 09:35:38 72.65, 27.73 49.84 2.26 25
30 06/09/2023 10:26:46 -72.67,-164.99 130.15 06/09/2023 10:26:19 -72.67,-164.92 130.15 2.64 27
31 06/09/2023 11:17:31 72.63, 2.41 49.80 06/09/2023 11:16:59 72.63, 2.33 49.81 2.69 32
32 06/09/2023 12:08:15 -72.63, 169.72 130.20 06/09/2023 12:07:41 -72.65, 169.69 130.18 2.06 34
33 06/09/2023 12:59:01 72.63, -22.97 49.80 06/09/2023 12:58:20 72.65, -22.96 49.83 2.38 41
34 06/09/2023 13:49:45 -72.63, 144.34 130.20 06/09/2023 13:49:03 -72.62, 144.30 130.20 2.05 42
35 06/09/2023 14:40:31 72.64, -48.36 49.80 06/09/2023 14:39:42 72.63, -48.35 49.80 1.22 49
36 06/09/2023 15:31:15 -72.64, 118.95 130.20 06/09/2023 15:30:24 -72.65, 119.01 130.19 2.09 51
37 06/09/2023 16:22:00 72.59, -73.64 49.75 06/09/2023 16:21:04 72.60, -73.74 49.77 3.47 56
38 06/09/2023 17:12:44 -72.59, 93.67 130.26 06/09/2023 17:11:46 -72.62, 93.62 130.22 3.21 58
39 06/09/2023 18:03:30 72.60, -99.03 49.75 06/09/2023 18:02:25 72.63, -99.03 49.79 3.18 65
40 06/09/2023 18:54:14 -72.60, 68.29 130.25 06/09/2023 18:53:08 -72.59, 68.23 130.24 1.92 66
41 06/09/2023 19:45:00 72.60,-124.41 49.75 06/09/2023 19:43:47 72.60,-124.42 49.76 0.44 73
42 06/09/2023 20:35:44 -72.61, 42.90 130.25 06/09/2023 20:34:29 -72.62, 42.94 130.23 2.10 75
43 06/09/2023 21:26:25 72.35,-149.29 49.47 06/09/2023 21:25:13 72.37,-150.22 49.55 31.54 72
44 06/09/2023 22:17:08 -72.31, 18.12 130.59 06/09/2023 22:15:56 -72.34, 17.04 130.48 36.63 72
45 06/09/2023 23:07:49 72.05,-174.08 49.14 06/09/2023 23:06:41 72.03,-176.20 49.25 73.03 68
46 06/09/2023 23:58:32 -72.01, -6.67 130.92 06/09/2023 23:57:24 -72.01, -8.93 130.78 77.76 68



Historial Predications of SNOs between NOAA-21 and METOP-C
